INTELSAT 20 (IS-20) (38740 NORAD) Tracking and Keplerian Element Data

This shows tracking and keplerian element data for the satellite.

Feedback or suggestion? Click here.




ElementValue
Catalog38740
NameINTELSAT 20 (IS-20)
Epoch Orbit2301
Epoch Day315.66872268
Epoch Year2018
RAAN256.638
Inclination0.0093
Eccentricity0.0003248
Argument of Perigee291.8399
Mean Anonmoly171.5434
Mean Motion1.00270994
Decay Rate-2.8E-07
L11 38740U 12043A 18315.66872268 -.00000028 00000-0 00000+0 0 9995
L22 38740 0.0093 256.6380 0003248 291.8399 171.5434 1.00270994 23017

Live tracking and technical data element details for INTELSAT 20 (IS-20) (NORAD 38740). INTELSAT 20 (IS-20) can be tracked NOW for your location showing map with azimuth and elevation plus other details from your city location.

Track the satellite on the map from your city or location and see movement details for azimuth, elevation, latitude, longitude, range, height, and movement on the map or in text.







IsCatalogInMostPopularTable: catalog: 38740, numindb: 144
Update: records affected: 1



GetName: 38740 INTELSAT 20 (IS-20)

Hit Count: updated at: Mon, 12 Nov 2018 17:55:02 GMT